| time (UTC) | temp C | wind direction | speed KPH | gust KPH | rain 1hr cm | rain 24hr cm | rain mn cm | humidity % | barometer mb |
| 20260508084521 | 9 | 284 | 0.0 | 6.4 | 0.00 | 0.00 | 0.00 | 74 | 1012.1 |
| 20260508083057 | 7 | 301 | 0.0 | 6.4 | 0.00 | 0.00 | 0.00 | 74 | 1011.8 |
| 20260508081533 | 7 | 333 | 3.2 | 11.3 | 0.00 | 0.00 | 0.00 | 75 | 1012.0 |
| 20260508074533 | 6 | 295 | 1.6 | 12.9 | 0.00 | 0.00 | 0.00 | 77 | 1012.0 |
| 20260508073017 | 6 | 311 | 1.6 | 9.7 | 0.00 | 0.00 | 0.00 | 78 | 1012.1 |
| 20260508071545 | 6 | 281 | 0.0 | 8.0 | 0.00 | 0.00 | 0.00 | 79 | 1012.4 |
| 20260508070018 | 6 | 331 | 1.6 | 12.9 | 0.00 | 0.00 | 0.00 | 77 | 1012.3 |
| 20260508064514 | 6 | 347 | 1.6 | 11.3 | 0.00 | 0.00 | 0.00 | 77 | 1012.2 |
| 20260508063011 | 6 | 329 | 1.6 | 8.0 | 0.00 | 0.00 | 0.00 | 79 | 1011.9 |
| 20260508061506 | 5 | 309 | 1.6 | 11.3 | 0.00 | 0.00 | 0.00 | 81 | 1012.1 |
| 20260508060054 | 4 | 288 | 0.0 | 4.8 | 0.00 | 0.00 | 0.00 | 83 | 1012.0 |
| 20260508054534 | 3 | 275 | 0.0 | 6.4 | 0.00 | 0.00 | 0.00 | 86 | 1011.7 |
| 20260508053009 | 2 | 278 | 0.0 | 3.2 | 0.00 | 0.00 | 0.00 | 88 | 1011.5 |
| 20260508051547 | 2 | 276 | 0.0 | 0.0 | 0.00 | 0.00 | 0.00 | 87 | 1011.3 |
| 20260508050037 | 2 | 276 | 0.0 | 0.0 | 0.00 | 0.00 | 0.00 | 85 | 1011.1 |
| 20260508044533 | 3 | 276 | 0.0 | 0.0 | 0.00 | 0.00 | 0.00 | 83 | 1011.0 |
| 20260508043032 | 3 | 276 | 0.0 | 0.0 | 0.00 | 0.00 | 0.00 | 83 | 1011.2 |
| 20260508041601 | 3 | 266 | 0.0 | 6.4 | 0.00 | 0.00 | 0.00 | 83 | 1011.1 |
| 20260508040037 | 3 | 311 | 0.0 | 0.0 | 0.00 | 0.00 | 0.00 | 85 | 1011.0 |
| 20260508034510 | 3 | 311 | 0.0 | 0.0 | 0.00 | 0.00 | 0.00 | 85 | 1010.9 |
| 20260508033046 | 3 | 311 | 0.0 | 0.0 | 0.00 | 0.00 | 0.00 | 84 | 1011.0 |
| 20260508031518 | 3 | 292 | 0.0 | 0.0 | 0.00 | 0.00 | 0.00 | 85 | 1011.3 |
| 20260508030104 | 3 | 292 | 0.0 | 0.0 | 0.00 | 0.00 | 0.00 | 83 | 1011.3 |
| 20260508024529 | 5 | 293 | 0.0 | 1.6 | 0.00 | 0.00 | 0.00 | 80 | 1011.5 |
| 20260508023021 | 5 | 329 | 0.0 | 6.4 | 0.00 | 0.00 | 0.00 | 81 | 1011.7 |
| 20260508021559 | 5 | 298 | 0.0 | 8.0 | 0.00 | 0.00 | 0.00 | 81 | 1011.8 |
| 20260508020104 | 4 | 309 | 1.6 | 9.7 | 0.00 | 0.00 | 0.00 | 83 | 1011.9 |
| 20260508014536 | 4 | 308 | 0.0 | 6.4 | 0.00 | 0.00 | 0.00 | 83 | 1011.9 |
| 20260508013005 | 4 | 272 | 0.0 | 0.0 | 0.00 | 0.00 | 0.00 | 84 | 1012.0 |
| 20260508011540 | 4 | 292 | 0.0 | 8.0 | 0.00 | 0.00 | 0.00 | 84 | 1012.0 |
| 20260508010024 | 4 | 309 | 0.0 | 6.4 | 0.00 | 0.00 | 0.00 | 84 | 1012.1 |
| 20260508004548 | 3 | 277 | 0.0 | 4.8 | 0.00 | 0.00 | 0.00 | 84 | 1012.2 |
| 20260508003021 | 4 | 274 | 0.0 | 1.6 | 0.00 | 0.00 | 0.00 | 82 | 1012.3 |
| 20260508001601 | 4 | 319 | 0.0 | 6.4 | 0.00 | 0.00 | 0.00 | 82 | 1012.5 |
| 20260508000031 | 5 | 266 | 0.0 | 4.8 | 0.00 | 0.00 | 0.00 | 82 | 1012.4 |
| 20260507234506 | 4 | 300 | 0.0 | 4.8 | 0.00 | 0.00 | 0.00 | 82 | 1012.6 |
| 20260507233044 | 5 | 327 | 0.0 | 6.4 | 0.00 | 0.00 | 0.00 | 81 | 1012.7 |
| 20260507231518 | 5 | 329 | 0.0 | 9.7 | 0.00 | 0.00 | 0.00 | 81 | 1012.7 |
| 20260507230056 | 5 | 344 | 1.6 | 12.9 | 0.00 | 0.00 | 0.00 | 80 | 1012.8 |
| 20260507224529 | 5 | 319 | 1.6 | 14.5 | 0.00 | 0.00 | 0.00 | 80 | 1012.8 |
| 20260507223002 | 6 | 294 | 3.2 | 11.3 | 0.00 | 0.00 | 0.00 | 79 | 1012.9 |
| 20260507221535 | 5 | 305 | 0.0 | 6.4 | 0.00 | 0.00 | 0.00 | 80 | 1012.9 |
| 20260507220005 | 5 | 323 | 0.0 | 11.3 | 0.00 | 0.00 | 0.00 | 82 | 1012.9 |
| 20260507214547 | 5 | 336 | 0.0 | 8.0 | 0.00 | 0.00 | 0.00 | 87 | 1012.9 |
| 20260507213015 | 4 | 346 | 0.0 | 0.0 | 0.00 | 0.00 | 0.00 | 89 | 1012.9 |
| 20260507211555 | 5 | 5 | 0.0 | 0.0 | 0.00 | 0.00 | 0.00 | 88 | 1012.7 |
| 20260507210023 | 6 | 57 | 0.0 | 0.0 | 0.00 | 0.00 | 0.00 | 87 | 1012.6 |
| 20260507204601 | 6 | 57 | 0.0 | 0.0 | 0.00 | 0.00 | 0.00 | 85 | 1012.5 |
| 20260507203036 | 7 | 57 | 0.0 | 0.0 | 0.00 | 0.00 | 0.00 | 86 | 1012.4 |
| 20260507201525 | 7 | 57 | 0.0 | 0.0 | 0.00 | 0.00 | 0.00 | 85 | 1012.1 |
| 20260507194538 | 8 | 129 | 0.0 | 4.8 | 0.00 | 0.00 | 0.00 | 81 | 1011.7 |
| 20260507193034 | 8 | 27 | 0.0 | 0.0 | 0.00 | 0.00 | 0.00 | 77 | 1011.7 |
| 20260507191522 | 8 | 344 | 0.0 | 3.2 | 0.00 | 0.00 | 0.00 | 69 | 1011.5 |
| 20260507190013 | 8 | 282 | 0.0 | 6.4 | 0.00 | 0.00 | 0.00 | 71 | 1011.2 |
| 20260507184551 | 9 | 285 | 0.0 | 0.0 | 0.00 | 0.00 | 0.00 | 70 | 1010.8 |
| 20260507183040 | 9 | 286 | 0.0 | 0.0 | 0.00 | 0.00 | 0.00 | 68 | 1010.6 |
| 20260507181501 | 10 | 283 | 0.0 | 0.0 | 0.00 | 0.00 | 0.00 | 66 | 1010.5 |
| 20260507180051 | 10 | 288 | 0.0 | 0.0 | 0.00 | 0.00 | 0.00 | 67 | 1010.5 |
| 20260507174518 | 10 | 288 | 0.0 | 0.0 | 0.00 | 0.00 | 0.00 | 66 | 1010.5 |
| 20260507173054 | 10 | 288 | 0.0 | 0.0 | 0.00 | 0.00 | 0.00 | 66 | 1010.5 |
| 20260507171526 | 10 | 288 | 0.0 | 3.2 | 0.00 | 0.00 | 0.00 | 63 | 1010.4 |
| 20260507170019 | 10 | 276 | 0.0 | 6.4 | 0.00 | 0.00 | 0.00 | 62 | 1010.3 |
| 20260507164513 | 11 | 286 | 0.0 | 8.0 | 0.00 | 0.00 | 0.00 | 65 | 1010.1 |
| 20260507163009 | 10 | 316 | 0.0 | 4.8 | 0.00 | 0.00 | 0.00 | 66 | 1009.9 |
| 20260507161544 | 10 | 330 | 0.0 | 6.4 | 0.00 | 0.00 | 0.00 | 67 | 1009.6 |
| 20260507160034 | 10 | 270 | 0.0 | 4.8 | 0.00 | 0.00 | 0.00 | 69 | 1009.6 |
| 20260507154556 | 10 | 308 | 0.0 | 9.7 | 0.00 | 0.00 | 0.00 | 67 | 1009.5 |
| 20260507153035 | 11 | 273 | 1.6 | 12.9 | 0.00 | 0.00 | 0.00 | 65 | 1009.8 |
| 20260507151506 | 11 | 287 | 0.0 | 8.0 | 0.00 | 0.00 | 0.00 | 65 | 1010.0 |
| 20260507150043 | 11 | 278 | 0.0 | 16.1 | 0.00 | 0.00 | 0.00 | 66 | 1010.0 |
| 20260507144537 | 10 | 15 | 1.6 | 14.5 | 0.00 | 0.00 | 0.00 | 67 | 1010.1 |
| 20260507143030 | 10 | 313 | 0.0 | 17.7 | 0.00 | 0.00 | 0.00 | 66 | 1010.2 |
| 20260507141523 | 11 | 322 | 4.8 | 19.3 | 0.00 | 0.00 | 0.00 | 63 | 1010.3 |
| 20260507140019 | 12 | 306 | 1.6 | 14.5 | 0.00 | 0.00 | 0.00 | 64 | 1010.3 |
| 20260507134516 | 12 | 316 | 0.0 | 9.7 | 0.00 | 0.00 | 0.00 | 60 | 1010.3 |
| 20260507133009 | 13 | 272 | 0.0 | 9.7 | 0.00 | 0.00 | 0.00 | 55 | 1010.2 |
| 20260507131548 | 12 | 271 | 1.6 | 14.5 | 0.00 | 0.00 | 0.00 | 57 | 1010.2 |
| 20260507130026 | 12 | 272 | 0.0 | 11.3 | 0.00 | 0.00 | 0.00 | 61 | 1010.6 |
| 20260507124518 | 12 | 306 | 4.8 | 19.3 | 0.00 | 0.00 | 0.00 | 60 | 1010.7 |
| 20260507123050 | 11 | 292 | 1.6 | 14.5 | 0.00 | 0.00 | 0.00 | 65 | 1010.7 |
| 20260507121522 | 11 | 285 | 4.8 | 20.9 | 0.00 | 0.00 | 0.00 | 64 | 1010.8 |
| 20260507114553 | 10 | 286 | 0.0 | 8.0 | 0.00 | 0.00 | 0.00 | 67 | 1011.1 |
| 20260507113036 | 9 | 286 | 0.0 | 4.8 | 0.00 | 0.00 | 0.00 | 68 | 1011.3 |
| 20260507111531 | 9 | 282 | 1.6 | 9.7 | 0.00 | 0.00 | 0.00 | 64 | 1011.6 |
| 20260507110030 | 10 | 299 | 1.6 | 19.3 | 0.00 | 0.00 | 0.00 | 63 | 1011.5 |
| 20260507104524 | 11 | 298 | 0.0 | 17.7 | 0.00 | 0.00 | 0.00 | 64 | 1011.4 |
| 20260507103014 | 11 | 278 | 1.6 | 12.9 | 0.00 | 0.00 | 0.00 | 65 | 1011.3 |
| 20260507101508 | 10 | 273 | 3.2 | 17.7 | 0.00 | 0.00 | 0.00 | 64 | 1011.2 |
| 20260507100037 | 10 | 299 | 1.6 | 19.3 | 0.00 | 0.00 | 0.00 | 64 | 1011.3 |
| 20260507094507 | 10 | 260 | 3.2 | 17.7 | 0.00 | 0.00 | 0.00 | 65 | 1011.3 |
| 20260507093045 | 10 | 296 | 1.6 | 19.3 | 0.00 | 0.00 | 0.00 | 66 | 1011.0 |
| 20260507091543 | 10 | 316 | 3.2 | 17.7 | 0.00 | 0.00 | 0.00 | 63 | 1010.7 |
| 20260507090034 | 11 | 282 | 3.2 | 19.3 | 0.00 | 0.00 | 0.00 | 60 | 1010.9 |